Time,TemperatureF,DewpointF,PressureIn,WindDirection,WindDirectionDegrees,WindSpeedMPH,WindSpeedGustMPH,Humidity,HourlyPrecipIn,Conditions,Clouds,dailyrainin,SoftwareType,DateUTC
2013-03-09 00:00:00,30.6,24.9,30.24,ENE,67,0.0,1.0,79,0.00,,,-99.99,WeatherLink 5.6,2013-03-09 05:00:00,
2013-03-09 00:30:00,31.4,25.0,30.25,NNE,22,0.0,1.0,77,0.00,,,-99.99,WeatherLink 5.6,2013-03-09 05:30:00,
2013-03-09 01:00:00,30.8,24.7,30.26,NNE,22,0.0,1.0,78,0.00,,,-99.99,WeatherLink 5.6,2013-03-09 06:00:00,
2013-03-09 01:30:00,30.8,24.7,30.24,NW,315,0.0,1.0,78,0.00,,,-99.99,WeatherLink 5.6,2013-03-09 06:30:00,
2013-03-09 02:00:00,30.2,24.5,30.24,North,-999,0.0,0.0,79,0.00,,,-99.99,WeatherLink 5.6,2013-03-09 07:00:00,
2013-03-09 02:30:00,29.9,24.5,30.23,North,-999,0.0,0.0,80,0.00,,,-99.99,WeatherLink 5.6,2013-03-09 07:30:00,
2013-03-09 03:00:00,29.2,24.1,30.23,North,-999,0.0,0.0,81,0.00,,,-99.99,WeatherLink 5.6,2013-03-09 08:00:00,
2013-03-09 03:30:00,29.5,24.4,30.21,North,-999,0.0,0.0,81,0.00,,,-99.99,WeatherLink 5.6,2013-03-09 08:30:00,
2013-03-09 04:00:00,29.7,24.3,30.19,ENE,67,0.0,1.0,80,0.00,,,-99.99,WeatherLink 5.6,2013-03-09 09:00:00,
2013-03-09 04:30:00,29.9,24.2,30.18,East,90,0.0,1.0,79,0.00,,,-99.99,WeatherLink 5.6,2013-03-09 09:30:00,
2013-03-09 05:00:00,29.5,23.8,30.18,NNE,22,0.0,1.0,79,0.00,,,-99.99,WeatherLink 5.6,2013-03-09 10:00:00,
2013-03-09 05:30:00,30.4,24.1,30.19,North,-999,0.0,0.0,77,0.00,,,-99.99,WeatherLink 5.6,2013-03-09 10:30:00,
2013-03-09 06:00:00,30.8,23.8,30.19,North,-999,0.0,0.0,75,0.00,,,-99.99,WeatherLink 5.6,2013-03-09 11:00:00,
2013-03-09 06:30:00,31.5,23.8,30.20,North,-999,0.0,0.0,73,0.00,,,-99.99,WeatherLink 5.6,2013-03-09 11:30:00,
2013-03-09 07:00:00,31.1,24.1,30.20,NW,315,0.0,1.0,75,0.00,,,-99.99,WeatherLink 5.6,2013-03-09 12:00:00,
2013-03-09 07:30:00,34.6,25.8,30.21,North,-999,0.0,0.0,70,0.00,,,-99.99,WeatherLink 5.6,2013-03-09 12:30:00,
2013-03-09 08:00:00,36.3,26.7,30.21,North,-999,0.0,0.0,68,0.00,,,-99.99,WeatherLink 5.6,2013-03-09 13:00:00,
2013-03-09 08:30:00,38.5,27.7,30.21,North,-999,0.0,0.0,65,0.00,,,-99.99,WeatherLink 5.6,2013-03-09 13:30:00,
2013-03-09 09:00:00,42.0,31.8,30.20,North,-999,0.0,0.0,67,0.00,,,-99.99,WeatherLink 5.6,2013-03-09 14:00:00,
2013-03-09 09:30:00,41.4,29.7,30.18,SE,135,1.0,3.0,63,0.00,,,-99.99,WeatherLink 5.6,2013-03-09 14:30:00,
2013-03-09 10:00:00,44.8,30.5,30.17,SSE,157,2.0,5.0,57,0.00,,,-99.99,WeatherLink 5.6,2013-03-09 15:00:00,
2013-03-09 10:30:00,47.5,33.0,30.17,SE,135,1.0,5.0,57,0.00,,,-99.99,WeatherLink 5.6,2013-03-09 15:30:00,
2013-03-09 11:00:00,49.2,33.7,30.17,SE,135,3.0,7.0,55,0.00,,,-99.99,WeatherLink 5.6,2013-03-09 16:00:00,
2013-03-09 11:30:00,51.7,32.6,30.16,SE,135,1.0,5.0,48,0.00,,,-99.99,WeatherLink 5.6,2013-03-09 16:30:00,
2013-03-09 12:00:00,52.1,27.9,30.16,SSW,202,4.0,10.0,39,0.00,,,-99.99,WeatherLink 5.6,2013-03-09 17:00:00,
2013-03-09 12:30:00,53.1,27.5,30.15,South,180,5.0,12.0,37,0.00,,,-99.99,WeatherLink 5.6,2013-03-09 17:30:00,
2013-03-09 13:00:00,54.1,29.0,30.13,SE,135,3.0,11.0,38,0.00,,,-99.99,WeatherLink 5.6,2013-03-09 18:00:00,
2013-03-09 13:30:00,55.4,28.2,30.11,SE,135,5.0,11.0,35,0.00,,,-99.99,WeatherLink 5.6,2013-03-09 18:30:00,
2013-03-09 14:00:00,56.9,28.8,30.10,South,180,4.0,15.0,34,0.00,,,-99.99,WeatherLink 5.6,2013-03-09 19:00:00,
2013-03-09 14:30:00,57.6,29.4,30.09,South,180,3.0,12.0,34,0.00,,,-99.99,WeatherLink 5.6,2013-03-09 19:30:00,
2013-03-09 15:00:00,58.6,28.0,30.08,South,180,3.0,11.0,31,0.00,,,-99.99,WeatherLink 5.6,2013-03-09 20:00:00,
2013-03-09 15:30:00,59.0,28.4,30.08,South,180,4.0,11.0,31,0.00,,,-99.99,WeatherLink 5.6,2013-03-09 20:30:00,
2013-03-09 16:00:00,59.0,28.4,30.07,South,180,3.0,9.0,31,0.00,,,-99.99,WeatherLink 5.6,2013-03-09 21:00:00,
2013-03-09 16:30:00,59.0,28.4,30.07,South,180,4.0,9.0,31,0.00,,,-99.99,WeatherLink 5.6,2013-03-09 21:30:00,
2013-03-09 17:00:00,58.4,28.6,30.08,South,180,4.0,11.0,32,0.00,,,-99.99,WeatherLink 5.6,2013-03-09 22:00:00,
2013-03-09 17:30:00,57.3,26.1,30.08,South,180,3.0,7.0,30,0.00,,,-99.99,WeatherLink 5.6,2013-03-09 22:30:00,
2013-03-09 18:00:00,56.3,25.2,30.08,South,180,3.0,8.0,30,0.00,,,-99.99,WeatherLink 5.6,2013-03-09 23:00:00,
2013-03-09 18:30:00,55.5,24.5,30.06,SSE,157,3.0,7.0,30,0.00,,,-99.99,WeatherLink 5.6,2013-03-09 23:30:00,
2013-03-09 19:00:00,54.9,24.0,30.07,South,180,4.0,10.0,30,0.00,,,-99.99,WeatherLink 5.6,2013-03-10 00:00:00,
2013-03-09 19:30:00,54.2,24.2,30.05,South,180,4.0,11.0,31,0.00,,,-99.99,WeatherLink 5.6,2013-03-10 00:30:00,
2013-03-09 20:00:00,53.9,23.9,30.05,South,180,4.0,11.0,31,0.00,,,-99.99,WeatherLink 5.6,2013-03-10 01:00:00,
2013-03-09 20:30:00,53.9,23.9,30.03,South,180,5.0,12.0,31,0.00,,,-99.99,WeatherLink 5.6,2013-03-10 01:30:00,
2013-03-09 21:00:00,53.4,25.0,30.04,South,180,4.0,11.0,33,0.00,,,-99.99,WeatherLink 5.6,2013-03-10 02:00:00,
2013-03-09 21:30:00,52.7,25.8,30.04,South,180,5.0,13.0,35,0.00,,,-99.99,WeatherLink 5.6,2013-03-10 02:30:00,
2013-03-09 22:00:00,52.9,26.6,30.04,South,180,6.0,15.0,36,0.00,,,-99.99,WeatherLink 5.6,2013-03-10 03:00:00,
2013-03-09 22:30:00,52.3,26.8,30.04,South,180,8.0,20.0,37,0.00,,,-99.99,WeatherLink 5.6,2013-03-10 03:30:00,
2013-03-09 23:00:00,52.0,25.8,30.03,South,180,8.0,19.0,36,0.00,,,-99.99,WeatherLink 5.6,2013-03-10 04:00:00,
2013-03-09 23:30:00,50.8,26.7,30.01,South,180,7.0,20.0,39,0.00,,,-99.99,WeatherLink 5.6,2013-03-10 04:30:00,